Time,TemperatureF,DewpointF,PressureIn,WindDirection,WindDirectionDegrees,WindSpeedMPH,WindSpeedGustMPH,Humidity,HourlyPrecipIn,Conditions,Clouds,dailyrainin,SoftwareType,DateUTC
2013-02-10 00:01:00,42.0,33.0,30.06,NNW,338,1.0,4.0,70,0.00,,,0.00,,2013-02-10 08:01:00,
2013-02-10 00:11:00,42.0,33.0,30.06,NNW,338,1.0,4.0,70,0.00,,,0.00,,2013-02-10 08:11:00,
2013-02-10 00:21:00,42.0,33.0,30.06,North,351,1.0,6.0,69,0.00,,,0.00,,2013-02-10 08:21:00,
2013-02-10 00:31:00,42.0,33.0,30.06,North,355,1.0,4.0,71,0.00,,,0.00,,2013-02-10 08:31:00,
2013-02-10 00:42:00,42.0,33.0,30.06,North,355,1.0,4.0,71,0.00,,,0.00,,2013-02-10 08:42:00,
2013-02-10 00:52:00,42.0,33.0,30.06,North,355,0.0,4.0,70,0.00,,,0.00,,2013-02-10 08:52:00,
2013-02-10 01:01:00,41.0,33.0,30.06,North,5,1.0,5.0,72,0.00,,,0.00,,2013-02-10 09:01:00,
2013-02-10 01:11:00,41.0,33.0,30.06,North,5,1.0,5.0,72,0.00,,,0.00,,2013-02-10 09:11:00,
2013-02-10 01:21:00,42.0,32.0,30.06,NNW,344,3.0,6.0,68,0.00,,,0.00,,2013-02-10 09:21:00,
2013-02-10 01:31:00,41.0,32.0,30.06,North,355,1.0,4.0,71,0.00,,,0.00,,2013-02-10 09:31:00,
2013-02-10 01:41:00,41.0,32.0,30.06,North,355,1.0,4.0,71,0.00,,,0.00,,2013-02-10 09:41:00,
2013-02-10 01:52:00,41.0,31.0,30.06,NW,323,4.0,6.0,68,0.00,,,0.00,,2013-02-10 09:52:00,
2013-02-10 02:01:00,41.0,32.0,30.06,NW,325,0.0,4.0,70,0.00,,,0.00,,2013-02-10 10:01:00,
2013-02-10 02:11:00,41.0,31.0,30.06,North,5,0.0,5.0,68,0.00,,,0.00,,2013-02-10 10:11:00,
2013-02-10 02:21:00,41.0,31.0,30.06,North,5,0.0,5.0,68,0.00,,,0.00,,2013-02-10 10:21:00,
2013-02-10 02:31:00,39.0,31.0,30.05,North,9,0.0,3.0,72,0.00,,,0.00,,2013-02-10 10:31:00,
2013-02-10 02:41:00,39.0,31.0,30.05,North,9,0.0,3.0,72,0.00,,,0.00,,2013-02-10 10:41:00,
2013-02-10 02:52:00,39.0,31.0,30.05,North,9,0.0,0.0,72,0.00,,,0.00,,2013-02-10 10:52:00,
2013-02-10 03:01:00,39.0,31.0,30.06,North,9,0.0,1.0,73,0.00,,,0.00,,2013-02-10 11:01:00,
2013-02-10 03:11:00,39.0,31.0,30.06,North,9,0.0,1.0,73,0.00,,,0.00,,2013-02-10 11:11:00,
2013-02-10 03:21:00,40.0,31.0,30.05,North,350,1.0,4.0,71,0.00,,,0.00,,2013-02-10 11:21:00,
2013-02-10 03:31:00,39.0,30.0,30.05,North,355,0.0,0.0,71,0.00,,,0.00,,2013-02-10 11:31:00,
2013-02-10 03:41:00,39.0,30.0,30.05,North,355,0.0,0.0,71,0.00,,,0.00,,2013-02-10 11:41:00,
2013-02-10 03:52:00,39.0,30.0,30.04,NW,318,2.0,4.0,71,0.00,,,0.00,,2013-02-10 11:52:00,
2013-02-10 04:01:00,39.0,31.0,30.04,NNE,13,0.0,5.0,73,0.00,,,0.00,,2013-02-10 12:01:00,
2013-02-10 04:12:00,39.0,31.0,30.04,NNE,13,0.0,5.0,73,0.00,,,0.00,,2013-02-10 12:12:00,
2013-02-10 04:21:00,39.0,32.0,30.04,NNE,13,3.0,5.0,76,0.00,,,0.00,,2013-02-10 12:21:00,
2013-02-10 04:31:00,41.0,31.0,30.04,North,350,3.0,7.0,68,0.00,,,0.00,,2013-02-10 12:31:00,
2013-02-10 04:41:00,41.0,31.0,30.04,North,350,3.0,7.0,68,0.00,,,0.00,,2013-02-10 12:41:00,
2013-02-10 04:52:00,40.0,30.0,30.04,NNW,344,3.0,6.0,66,0.00,,,0.00,,2013-02-10 12:52:00,
2013-02-10 05:02:00,40.0,30.0,30.04,North,355,5.0,8.0,67,0.00,,,0.00,,2013-02-10 13:02:00,
2013-02-10 05:11:00,40.0,30.0,30.04,North,355,5.0,8.0,67,0.00,,,0.00,,2013-02-10 13:11:00,
2013-02-10 05:21:00,40.0,31.0,30.04,North,355,2.0,6.0,69,0.00,,,0.00,,2013-02-10 13:21:00,
2013-02-10 05:31:00,40.0,30.0,30.04,North,355,2.0,5.0,67,0.00,,,0.00,,2013-02-10 13:31:00,
2013-02-10 05:41:00,40.0,30.0,30.04,North,355,2.0,5.0,67,0.00,,,0.00,,2013-02-10 13:41:00,
2013-02-10 05:52:00,39.0,30.0,30.04,NW,315,2.0,5.0,71,0.00,,,0.00,,2013-02-10 13:52:00,
2013-02-10 06:01:00,40.0,31.0,30.04,North,350,3.0,6.0,69,0.00,,,0.00,,2013-02-10 14:01:00,
2013-02-10 06:11:00,40.0,31.0,30.04,North,350,3.0,6.0,69,0.00,,,0.00,,2013-02-10 14:11:00,
2013-02-10 06:21:00,39.0,30.0,30.04,North,349,3.0,6.0,69,0.00,,,0.00,,2013-02-10 14:21:00,
2013-02-10 06:31:00,39.0,29.0,30.04,NNW,342,2.0,7.0,67,0.00,,,0.00,,2013-02-10 14:31:00,
2013-02-10 06:41:00,39.0,29.0,30.04,NNW,342,2.0,7.0,67,0.00,,,0.00,,2013-02-10 14:41:00,
2013-02-10 06:52:00,39.0,30.0,30.04,NNE,19,2.0,5.0,70,0.00,,,0.00,,2013-02-10 14:52:00,
2013-02-10 07:01:00,39.0,29.0,30.04,North,360,0.0,7.0,67,0.00,,,0.00,,2013-02-10 15:01:00,
2013-02-10 07:11:00,39.0,29.0,30.04,North,360,0.0,7.0,67,0.00,,,0.00,,2013-02-10 15:11:00,
2013-02-10 07:21:00,39.0,29.0,30.04,North,360,1.0,7.0,68,0.00,,,0.00,,2013-02-10 15:21:00,
2013-02-10 07:31:00,39.0,29.0,30.05,SE,128,2.0,7.0,68,0.00,,,0.00,,2013-02-10 15:31:00,
2013-02-10 07:41:00,39.0,29.0,30.05,SE,128,2.0,7.0,68,0.00,,,0.00,,2013-02-10 15:41:00,
2013-02-10 07:52:00,39.0,29.0,30.05,NNW,347,2.0,6.0,68,0.00,,,0.00,,2013-02-10 15:52:00,
2013-02-10 08:01:00,39.0,30.0,30.05,NNW,340,1.0,4.0,69,0.00,,,0.00,,2013-02-10 16:01:00,
2013-02-10 08:11:00,39.0,30.0,30.06,NNW,340,0.0,6.0,70,0.00,,,0.00,,2013-02-10 16:11:00,
2013-02-10 08:21:00,39.0,30.0,30.06,NNW,340,0.0,6.0,70,0.00,,,0.00,,2013-02-10 16:21:00,
2013-02-10 08:31:00,41.0,31.0,30.06,NNW,338,0.0,0.0,68,0.00,,,0.00,,2013-02-10 16:31:00,
2013-02-10 08:41:00,43.0,32.0,30.06,NNW,336,0.0,2.0,66,0.00,,,0.00,,2013-02-10 16:41:00,
2013-02-10 08:52:00,43.0,32.0,30.06,NNW,336,0.0,2.0,66,0.00,,,0.00,,2013-02-10 16:52:00,
2013-02-10 09:01:00,44.0,33.0,30.06,NNW,329,0.0,3.0,66,0.00,,,0.00,,2013-02-10 17:01:00,
2013-02-10 09:21:00,45.0,34.0,30.06,NNW,327,0.0,1.0,66,0.00,,,0.00,,2013-02-10 17:21:00,
2013-02-10 09:31:00,47.0,35.0,30.06,NW,325,0.0,2.0,62,0.00,,,0.00,,2013-02-10 17:31:00,
2013-02-10 09:41:00,47.0,34.0,30.06,NW,323,0.0,0.0,60,0.00,,,0.00,,2013-02-10 17:41:00,
2013-02-10 09:52:00,47.0,34.0,30.06,NW,323,0.0,0.0,60,0.00,,,0.00,,2013-02-10 17:52:00,
2013-02-10 10:01:00,49.0,36.0,30.06,NW,317,0.0,3.0,60,0.00,,,0.00,,2013-02-10 18:01:00,
2013-02-10 10:11:00,50.0,37.0,30.05,NW,317,0.0,1.0,60,0.00,,,0.00,,2013-02-10 18:11:00,
2013-02-10 10:21:00,50.0,37.0,30.05,NW,317,0.0,1.0,60,0.00,,,0.00,,2013-02-10 18:21:00,
2013-02-10 10:31:00,51.0,38.0,30.05,NW,313,0.0,1.0,61,0.00,,,0.00,,2013-02-10 18:31:00,
2013-02-10 10:41:00,51.0,38.0,30.05,NW,313,0.0,1.0,61,0.00,,,0.00,,2013-02-10 18:41:00,
2013-02-10 10:51:00,52.0,38.0,30.05,East,83,2.0,4.0,59,0.00,,,0.00,,2013-02-10 18:51:00,
2013-02-10 11:01:00,53.0,39.0,30.04,SSE,155,2.0,5.0,59,0.00,,,0.00,,2013-02-10 19:01:00,
2013-02-10 11:11:00,53.0,39.0,30.04,ESE,113,0.0,7.0,58,0.00,,,0.00,,2013-02-10 19:11:00,
2013-02-10 11:21:00,53.0,39.0,30.04,ESE,113,0.0,7.0,58,0.00,,,0.00,,2013-02-10 19:21:00,
2013-02-10 11:31:00,54.0,40.0,30.04,SW,218,1.0,6.0,59,0.00,,,0.00,,2013-02-10 19:31:00,
2013-02-10 11:42:00,54.0,38.0,30.03,ENE,74,2.0,7.0,55,0.00,,,0.00,,2013-02-10 19:42:00,
2013-02-10 11:52:00,54.0,38.0,30.03,ENE,74,2.0,7.0,55,0.00,,,0.00,,2013-02-10 19:52:00,
2013-02-10 12:01:00,55.0,39.0,30.02,WSW,242,3.0,6.0,55,0.00,,,0.00,,2013-02-10 20:01:00,
2013-02-10 12:11:00,55.0,39.0,30.02,WSW,242,3.0,6.0,55,0.00,,,0.00,,2013-02-10 20:11:00,
2013-02-10 12:21:00,53.0,39.0,30.02,South,191,1.0,9.0,59,0.00,,,0.00,,2013-02-10 20:21:00,
2013-02-10 12:31:00,53.0,40.0,30.01,WSW,252,3.0,10.0,62,0.00,,,0.00,,2013-02-10 20:31:00,
2013-02-10 12:41:00,53.0,40.0,30.01,South,178,2.0,6.0,62,0.00,,,0.00,,2013-02-10 20:41:00,
2013-02-10 12:52:00,53.0,40.0,30.01,South,178,2.0,6.0,62,0.00,,,0.00,,2013-02-10 20:52:00,
2013-02-10 13:02:00,52.0,41.0,30.00,WSW,256,2.0,9.0,65,0.00,,,0.00,,2013-02-10 21:02:00,
2013-02-10 13:11:00,52.0,41.0,30.00,WSW,256,2.0,9.0,65,0.00,,,0.00,,2013-02-10 21:11:00,
2013-02-10 13:21:00,52.0,40.0,29.99,South,180,4.0,7.0,63,0.00,,,0.00,,2013-02-10 21:21:00,
2013-02-10 13:31:00,54.0,40.0,29.99,SW,232,3.0,8.0,59,0.00,,,0.00,,2013-02-10 21:31:00,
2013-02-10 13:41:00,54.0,40.0,29.99,SW,215,2.0,7.0,60,0.00,,,0.00,,2013-02-10 21:41:00,
2013-02-10 13:52:00,54.0,40.0,29.99,SW,215,2.0,7.0,60,0.00,,,0.00,,2013-02-10 21:52:00,
2013-02-10 14:01:00,54.0,40.0,29.98,SW,216,1.0,9.0,60,0.00,,,0.00,,2013-02-10 22:01:00,
2013-02-10 14:11:00,52.0,39.0,29.98,SSW,208,3.0,9.0,62,0.00,,,0.00,,2013-02-10 22:11:00,
2013-02-10 14:21:00,52.0,39.0,29.98,SSW,208,3.0,9.0,62,0.00,,,0.00,,2013-02-10 22:21:00,
2013-02-10 14:31:00,53.0,41.0,29.99,WSW,240,2.0,6.0,63,0.00,,,0.00,,2013-02-10 22:31:00,
2013-02-10 14:41:00,52.0,40.0,29.99,WSW,250,5.0,7.0,64,0.00,,,0.00,,2013-02-10 22:41:00,
2013-02-10 14:52:00,52.0,40.0,29.99,WSW,250,5.0,7.0,64,0.00,,,0.00,,2013-02-10 22:52:00,
2013-02-10 15:01:00,52.0,41.0,29.98,SSW,200,2.0,6.0,65,0.00,,,0.00,,2013-02-10 23:01:00,
2013-02-10 15:11:00,52.0,41.0,29.98,SSW,200,2.0,6.0,65,0.00,,,0.00,,2013-02-10 23:11:00,
2013-02-10 15:21:00,52.0,42.0,29.98,SSW,202,2.0,11.0,68,0.00,,,0.00,,2013-02-10 23:21:00,
2013-02-10 15:31:00,51.0,42.0,29.98,SW,229,2.0,8.0,70,0.00,,,0.00,,2013-02-10 23:31:00,
2013-02-10 15:41:00,51.0,42.0,29.99,SSW,206,2.0,7.0,70,0.00,,,0.00,,2013-02-10 23:41:00,
2013-02-10 15:52:00,51.0,42.0,29.99,SSW,206,2.0,7.0,70,0.00,,,0.00,,2013-02-10 23:52:00,
2013-02-10 16:01:00,51.0,42.0,29.98,WSW,252,1.0,5.0,72,0.00,,,0.00,,2013-02-11 00:01:00,
2013-02-10 16:11:00,51.0,43.0,29.98,WSW,238,2.0,5.0,73,0.00,,,0.00,,2013-02-11 00:11:00,
2013-02-10 16:21:00,51.0,43.0,29.98,WSW,238,2.0,5.0,73,0.00,,,0.00,,2013-02-11 00:21:00,
2013-02-10 16:31:00,51.0,42.0,29.98,SSW,207,0.0,3.0,72,0.00,,,0.00,,2013-02-11 00:31:00,
2013-02-10 16:41:00,50.0,41.0,29.98,West,261,2.0,5.0,72,0.00,,,0.00,,2013-02-11 00:41:00,
2013-02-10 16:52:00,50.0,41.0,29.98,West,261,2.0,5.0,72,0.00,,,0.00,,2013-02-11 00:52:00,
2013-02-10 17:01:00,50.0,42.0,29.99,WSW,241,0.0,4.0,74,0.00,,,0.00,,2013-02-11 01:01:00,
2013-02-10 17:11:00,50.0,42.0,29.99,WSW,241,0.0,4.0,74,0.00,,,0.00,,2013-02-11 01:11:00,
2013-02-10 17:21:00,50.0,43.0,29.99,SW,236,2.0,4.0,76,0.00,,,0.00,,2013-02-11 01:21:00,
2013-02-10 17:31:00,49.0,43.0,29.99,SSW,203,0.0,4.0,79,0.00,,,0.00,,2013-02-11 01:31:00,
2013-02-10 17:41:00,49.0,43.0,29.99,SSW,203,0.0,0.0,81,0.00,,,0.00,,2013-02-11 01:41:00,
2013-02-10 17:52:00,49.0,43.0,29.99,SSW,203,0.0,0.0,81,0.00,,,0.00,,2013-02-11 01:52:00,
2013-02-10 18:01:00,48.0,43.0,29.99,SSW,203,0.0,3.0,83,0.00,,,0.00,,2013-02-11 02:01:00,
2013-02-10 18:11:00,48.0,43.0,29.99,SSW,203,0.0,3.0,83,0.00,,,0.00,,2013-02-11 02:11:00,
2013-02-10 18:21:00,48.0,43.0,29.99,SSW,203,0.0,4.0,83,0.00,,,0.00,,2013-02-11 02:21:00,
2013-02-10 18:31:00,48.0,43.0,30.00,SSW,203,0.0,0.0,83,0.00,,,0.00,,2013-02-11 02:31:00,
2013-02-10 18:41:00,48.0,43.0,30.00,SSW,203,0.0,0.0,84,0.00,,,0.00,,2013-02-11 02:41:00,
2013-02-10 18:52:00,48.0,43.0,30.00,SSW,203,0.0,0.0,84,0.00,,,0.00,,2013-02-11 02:52:00,
2013-02-10 19:01:00,48.0,43.0,30.00,SSW,203,0.0,0.0,84,0.00,,,0.00,,2013-02-11 03:01:00,
2013-02-10 19:11:00,48.0,43.0,30.00,SSW,203,0.0,0.0,84,0.00,,,0.00,,2013-02-11 03:11:00,
2013-02-10 19:21:00,47.0,43.0,30.00,SSW,203,0.0,0.0,85,0.00,,,0.00,,2013-02-11 03:21:00,
2013-02-10 19:31:00,47.0,43.0,30.00,SSW,203,0.0,1.0,85,0.00,,,0.00,,2013-02-11 03:31:00,
2013-02-10 19:41:00,47.0,43.0,30.00,SSW,203,0.0,0.0,85,0.00,,,0.00,,2013-02-11 03:41:00,
2013-02-10 19:52:00,47.0,43.0,30.00,SSW,203,0.0,0.0,85,0.00,,,0.00,,2013-02-11 03:52:00,
2013-02-10 20:01:00,47.0,43.0,30.00,SSW,203,0.0,0.0,86,0.00,,,0.00,,2013-02-11 04:01:00,
2013-02-10 20:11:00,47.0,43.0,30.00,SSW,203,0.0,0.0,86,0.00,,,0.00,,2013-02-11 04:11:00,
2013-02-10 20:21:00,46.0,42.0,30.01,SSW,203,0.0,0.0,87,0.00,,,0.00,,2013-02-11 04:21:00,
2013-02-10 20:31:00,46.0,42.0,30.01,SSW,203,0.0,0.0,87,0.00,,,0.00,,2013-02-11 04:31:00,
2013-02-10 20:41:00,45.0,41.0,30.01,SSW,203,2.0,3.0,86,0.00,,,0.00,,2013-02-11 04:41:00,
2013-02-10 20:52:00,45.0,41.0,30.01,SSW,203,2.0,3.0,86,0.00,,,0.00,,2013-02-11 04:52:00,
2013-02-10 21:01:00,46.0,42.0,30.01,SSW,202,0.0,3.0,85,0.00,,,0.00,,2013-02-11 05:01:00,
2013-02-10 21:11:00,45.0,40.0,30.01,SSW,200,0.0,3.0,84,0.00,,,0.00,,2013-02-11 05:11:00,
2013-02-10 21:22:00,45.0,40.0,30.01,SSW,200,0.0,3.0,84,0.00,,,0.00,,2013-02-11 05:22:00,
2013-02-10 21:31:00,44.0,40.0,30.02,South,191,1.0,3.0,86,0.00,,,0.00,,2013-02-11 05:31:00,
2013-02-10 21:41:00,44.0,40.0,30.02,South,191,1.0,3.0,86,0.00,,,0.00,,2013-02-11 05:41:00,
2013-02-10 21:52:00,44.0,40.0,30.02,South,191,1.0,3.0,87,0.00,,,0.00,,2013-02-11 05:52:00,
2013-02-10 22:01:00,44.0,40.0,30.02,South,191,0.0,2.0,87,0.00,,,0.00,,2013-02-11 06:01:00,
2013-02-10 22:11:00,44.0,40.0,30.02,South,191,0.0,2.0,87,0.00,,,0.00,,2013-02-11 06:11:00,
2013-02-10 22:21:00,43.0,40.0,30.02,South,191,0.0,1.0,89,0.00,,,0.00,,2013-02-11 06:21:00,
2013-02-10 22:31:00,41.0,39.0,30.02,SSW,193,0.0,1.0,91,0.00,,,0.00,,2013-02-11 06:31:00,
2013-02-10 22:41:00,40.0,38.0,30.03,South,190,0.0,4.0,92,0.00,,,0.00,,2013-02-11 06:41:00,
2013-02-10 22:52:00,40.0,38.0,30.03,South,190,0.0,4.0,92,0.00,,,0.00,,2013-02-11 06:52:00,
2013-02-10 23:01:00,42.0,39.0,30.03,South,190,0.0,1.0,90,0.00,,,0.00,,2013-02-11 07:01:00,
2013-02-10 23:11:00,42.0,38.0,30.03,South,188,2.0,4.0,87,0.00,,,0.00,,2013-02-11 07:11:00,
2013-02-10 23:21:00,42.0,38.0,30.03,South,188,2.0,4.0,87,0.00,,,0.00,,2013-02-11 07:21:00,
2013-02-10 23:31:00,43.0,39.0,30.03,North,355,1.0,5.0,85,0.00,,,0.00,,2013-02-11 07:31:00,
2013-02-10 23:41:00,41.0,37.0,30.04,North,360,0.0,1.0,87,0.00,,,0.00,,2013-02-11 07:41:00,
2013-02-10 23:52:00,41.0,37.0,30.04,North,360,0.0,1.0,87,0.00,,,0.00,,2013-02-11 07:52:00,